Retour au catalogue

STARLINK-11242

ActifCommunicationsVLEO
NORAD 60903·PAYLOAD·🇺🇸 United States

Lancé Aug 31, 2024 depuis Cape Canaveral Space Force Station

Loading…

Prochains Passages (prochaines 24 heures)

TLE

FraisSource: CelesTrak SupGP

Époque: Sep 14, 2026, 21:30 UTC

1 60903C 24154A   26257.89631944  .00015719  00000+0  12952-3 0  2571
2 60903  53.1567 278.2864 0000963  86.2715 321.3513 15.69694717    15

Suivez STARLINK-11242 en temps réel avec AllMySat

Download on the App Store